TimeMDT,TemperatureF,Dew PointF,Humidity,Sea Level PressureIn,VisibilityMPH,Wind Direction,Wind SpeedMPH,Gust SpeedMPH,PrecipitationIn,Events,Conditions,WindDirDegrees,DateUTC
12:53 AM,34.0,12.0,40,30.09,10.0,Calm,Calm,-,N/A,,Clear,0,2013-03-30 06:53:00
1:53 AM,30.9,12.0,46,30.09,10.0,Calm,Calm,-,N/A,,Clear,0,2013-03-30 07:53:00
2:53 AM,30.0,10.9,45,30.08,10.0,Calm,Calm,-,N/A,,Clear,0,2013-03-30 08:53:00
3:53 AM,28.9,12.9,51,30.08,10.0,Calm,Calm,-,N/A,,Clear,0,2013-03-30 09:53:00
4:53 AM,27.0,12.9,56,30.09,10.0,Calm,Calm,-,N/A,,Clear,0,2013-03-30 10:53:00
5:53 AM,25.0,12.9,60,30.11,10.0,Calm,Calm,-,N/A,,Clear,0,2013-03-30 11:53:00
7:53 AM,28.9,15.1,56,30.16,10.0,Calm,Calm,-,N/A,,Clear,0,2013-03-30 13:53:00
8:53 AM,39.0,16.0,39,30.13,10.0,Calm,Calm,-,N/A,,Clear,0,2013-03-30 14:53:00
9:53 AM,48.0,17.1,29,30.10,10.0,Calm,Calm,-,N/A,,Clear,0,2013-03-30 15:53:00
10:53 AM,57.9,17.1,20,30.05,10.0,Calm,Calm,-,N/A,,Clear,0,2013-03-30 16:53:00
11:53 AM,63.0,18.0,18,30.00,10.0,SSW,8.1,-,N/A,,Clear,200,2013-03-30 17:53:00
12:53 PM,63.0,18.0,18,30.03,10.0,South,11.5,-,N/A,,Mostly Cloudy,190,2013-03-30 18:53:00
1:53 PM,62.1,17.1,18,30.02,10.0,Variable,5.8,-,N/A,,Overcast,0,2013-03-30 19:53:00
2:53 PM,63.0,16.0,16,30.00,10.0,SW,13.8,19.6,N/A,,Mostly Cloudy,230,2013-03-30 20:53:00
3:53 PM,62.1,17.1,18,30.00,10.0,SW,10.4,-,N/A,,Scattered Clouds,230,2013-03-30 21:53:00
4:53 PM,61.0,17.1,18,30.01,10.0,Variable,5.8,17.3,N/A,,Overcast,0,2013-03-30 22:53:00
5:53 PM,59.0,19.0,21,30.04,10.0,WNW,15.0,19.6,N/A,,Overcast,300,2013-03-30 23:53:00
6:53 PM,57.0,19.9,24,30.05,10.0,West,6.9,-,N/A,,Overcast,260,2013-03-31 00:53:00
7:53 PM,54.0,21.9,29,30.05,10.0,West,6.9,-,N/A,,Overcast,260,2013-03-31 01:53:00
8:53 PM,51.1,23.0,33,30.03,10.0,Calm,Calm,-,N/A,,Overcast,0,2013-03-31 02:53:00
9:53 PM,48.0,23.0,37,30.01,10.0,Calm,Calm,-,N/A,,Overcast,0,2013-03-31 03:53:00
10:53 PM,44.1,23.0,43,29.99,10.0,South,3.5,-,N/A,,Clear,190,2013-03-31 04:53:00
11:53 PM,39.0,21.9,50,29.98,10.0,Calm,Calm,-,N/A,,Scattered Clouds,0,2013-03-31 05:53:00